EN

Hourly Weather Dziewietlice

Today, 26 October, Monday

Time Temperature Precipitation Wind Pressure Humidity
00:00 +10°C° 0 mm 2 mps 736 mmHg 91%
01:00 +10°C° 0 mm 2 mps 735 mmHg 92%
02:00 +10°C° 0 mm 2 mps 735 mmHg 92%
03:00 +10°C° 0 mm 2 mps 735 mmHg 92%
04:00 +10°C° 0 mm 2 mps 735 mmHg 92%
05:00 +10°C° 0 mm 2 mps 734 mmHg 91%
06:00 +10°C° 0 mm 2 mps 734 mmHg 91%
07:00 +12°C° 0 mm 2 mps 734 mmHg 90%
08:00 +12°C° 0 mm 2 mps 734 mmHg 88%
09:00 +13°C° 0 mm 2 mps 734 mmHg 86%
10:00 +14°C° 0 mm 2 mps 734 mmHg 85%
11:00 +14°C° 0.1 mm 2 mps 734 mmHg 84%
12:00 +14°C° 0.1 mm 2 mps 734 mmHg 84%
13:00 +13°C° 0.1 mm 3 mps 733 mmHg 84%
14:00 +14°C° 0 mm 2 mps 733 mmHg 84%
15:00 +14°C° 0 mm 2 mps 733 mmHg 85%
16:00 +14°C° 0 mm 2 mps 733 mmHg 85%
17:00 +13°C° 0 mm 2 mps 733 mmHg 86%
18:00 +13°C° 0 mm 2 mps 734 mmHg 88%
19:00 +12°C° 0 mm 2 mps 734 mmHg 90%
20:00 +12°C° 0 mm 1 mps 734 mmHg 91%
21:00 +11°C° 0 mm 1 mps 734 mmHg 92%
22:00 +11°C° 0 mm 1 mps 734 mmHg 93%
23:00 +11°C° 0 mm 1 mps 734 mmHg 94%

Tomorrow, 27 October, Tuesday

Time Temperature Precipitation Wind Pressure Humidity
00:00 +11°C° 0 mm 1 mps 734 mmHg 94%
01:00 +11°C° 0 mm 1 mps 735 mmHg 95%
02:00 +11°C° 0.1 mm 1 mps 734 mmHg 95%
03:00 +11°C° 0.1 mm 1 mps 734 mmHg 96%
04:00 +11°C° 0.1 mm 1 mps 734 mmHg 96%
05:00 +11°C° 0.1 mm 1 mps 735 mmHg 96%
06:00 +11°C° 0.1 mm 1 mps 735 mmHg 96%
07:00 +11°C° 0.1 mm 1 mps 735 mmHg 96%
08:00 +12°C° 0.2 mm 1 mps 735 mmHg 95%
09:00 +12°C° 0.2 mm 1 mps 735 mmHg 95%
10:00 +12°C° 0.2 mm 1 mps 735 mmHg 94%
11:00 +12°C° 0.3 mm 1 mps 736 mmHg 93%
12:00 +12°C° 0.3 mm 2 mps 736 mmHg 92%
13:00 +13°C° 0.3 mm 2 mps 736 mmHg 91%
14:00 +12°C° 0.4 mm 2 mps 736 mmHg 92%
15:00 +12°C° 0.4 mm 1 mps 736 mmHg 94%
16:00 +12°C° 0.4 mm 1 mps 736 mmHg 95%
17:00 +11°C° 0.1 mm 1 mps 737 mmHg 95%
18:00 +10°C° 0.1 mm 2 mps 737 mmHg 95%
19:00 +10°C° 0.1 mm 2 mps 738 mmHg 95%
20:00 +9°C° 0 mm 2 mps 738 mmHg 95%
21:00 +10°C° 0 mm 1 mps 738 mmHg 95%
22:00 +9°C° 0 mm 1 mps 739 mmHg 94%
23:00 +9°C° 0 mm 1 mps 739 mmHg 94%

Day after tomorrow, 28 October, Wednesday

Time Temperature Precipitation Wind Pressure Humidity
00:00 +9°C° 0 mm 1 mps 739 mmHg 93%
01:00 +8°C° 0 mm 1 mps 739 mmHg 93%
02:00 +8°C° 0 mm 1 mps 739 mmHg 92%
03:00 +8°C° 0 mm 1 mps 739 mmHg 91%
04:00 +7°C° 0 mm 2 mps 739 mmHg 91%
05:00 +7°C° 0 mm 2 mps 739 mmHg 90%
06:00 +6°C° 0 mm 2 mps 739 mmHg 90%
07:00 +6°C° 0 mm 2 mps 740 mmHg 89%
08:00 +8°C° 0 mm 2 mps 740 mmHg 83%
09:00 +10°C° 0 mm 2 mps 740 mmHg 77%
10:00 +13°C° 0 mm 2 mps 740 mmHg 71%
11:00 +13°C° 0 mm 2 mps 740 mmHg 67%
12:00 +14°C° 0 mm 2 mps 739 mmHg 64%
13:00 +15°C° 0 mm 2 mps 739 mmHg 60%
14:00 +14°C° 0 mm 2 mps 739 mmHg 65%
15:00 +13°C° 0 mm 2 mps 739 mmHg 70%
16:00 +12°C° 0 mm 2 mps 739 mmHg 75%
17:00 +12°C° 0 mm 2 mps 739 mmHg 77%
18:00 +10°C° 0 mm 2 mps 739 mmHg 79%
19:00 +10°C° 0 mm 3 mps 740 mmHg 81%
20:00 +9°C° 0 mm 3 mps 740 mmHg 82%
21:00 +9°C° 0 mm 3 mps 740 mmHg 82%
22:00 +9°C° 0 mm 3 mps 740 mmHg 82%
23:00 +9°C° 0 mm 3 mps 740 mmHg 82%

29 October, Thursday

Time Temperature Precipitation Wind Pressure Humidity
00:00 +9°C° 0 mm 3 mps 740 mmHg 82%
01:00 +9°C° 0 mm 3 mps 740 mmHg 82%
02:00 +9°C° 0 mm 3 mps 740 mmHg 80%
03:00 +9°C° 0 mm 3 mps 740 mmHg 79%
04:00 +10°C° 0 mm 3 mps 740 mmHg 77%
05:00 +10°C° 0 mm 3 mps 740 mmHg 77%
06:00 +10°C° 0 mm 3 mps 740 mmHg 77%
07:00 +10°C° 0 mm 3 mps 741 mmHg 77%
08:00 +11°C° 0 mm 4 mps 741 mmHg 76%
09:00 +12°C° 0 mm 4 mps 741 mmHg 74%
10:00 +12°C° 0 mm 5 mps 741 mmHg 73%
11:00 +13°C° 0 mm 5 mps 741 mmHg 73%
12:00 +13°C° 0 mm 5 mps 742 mmHg 73%
13:00 +13°C° 0 mm 5 mps 742 mmHg 72%
14:00 +12°C° 0 mm 4 mps 742 mmHg 74%
15:00 +12°C° 0 mm 4 mps 742 mmHg 75%
16:00 +12°C° 0 mm 4 mps 742 mmHg 77%
17:00 +11°C° 0 mm 3 mps 743 mmHg 78%
18:00 +10°C° 0 mm 3 mps 743 mmHg 80%
19:00 +10°C° 0 mm 3 mps 744 mmHg 81%
20:00 +9°C° 0 mm 3 mps 744 mmHg 83%
21:00 +9°C° 0 mm 3 mps 744 mmHg 84%
22:00 +9°C° 0 mm 3 mps 744 mmHg 85%
23:00 +9°C° 0 mm 3 mps 744 mmHg 86%

30 October, Friday

Time Temperature Precipitation Wind Pressure Humidity
00:00 +9°C° 0 mm 3 mps 744 mmHg 86%
01:00 +9°C° 0 mm 3 mps 744 mmHg 86%
02:00 +9°C° 0 mm 3 mps 744 mmHg 86%
03:00 +9°C° 0 mm 3 mps 744 mmHg 86%
04:00 +8°C° 0 mm 4 mps 744 mmHg 87%
05:00 +8°C° 0 mm 4 mps 744 mmHg 85%
06:00 +10°C° 0 mm 4 mps 744 mmHg 84%
07:00 +10°C° 0 mm 4 mps 744 mmHg 82%
08:00 +11°C° 0 mm 4 mps 745 mmHg 81%
09:00 +11°C° 0 mm 4 mps 745 mmHg 80%
10:00 +12°C° 0 mm 4 mps 745 mmHg 78%
11:00 +13°C° 0 mm 4 mps 745 mmHg 76%
12:00 +14°C° 0 mm 4 mps 745 mmHg 73%
13:00 +14°C° 0 mm 4 mps 745 mmHg 71%
14:00 +14°C° 0 mm 4 mps 745 mmHg 73%
15:00 +13°C° 0 mm 3 mps 745 mmHg 76%
16:00 +13°C° 0 mm 3 mps 745 mmHg 79%
17:00 +12°C° 0 mm 3 mps 745 mmHg 77%
18:00 +12°C° 0 mm 3 mps 745 mmHg 76%
19:00 +12°C° 0 mm 3 mps 745 mmHg 75%
20:00 +11°C° 0 mm 3 mps 745 mmHg 76%
21:00 +11°C° 0 mm 3 mps 745 mmHg 77%
22:00 +10°C° 0 mm 3 mps 745 mmHg 78%
23:00 +10°C° 0 mm 3 mps 745 mmHg 80%

31 October, Saturday

Time Temperature Precipitation Wind Pressure Humidity
00:00 +10°C° 0 mm 3 mps 745 mmHg 81%
01:00 +10°C° 0 mm 3 mps 745 mmHg 83%
02:00 +9°C° 0 mm 3 mps 745 mmHg 83%
03:00 +9°C° 0 mm 3 mps 745 mmHg 82%
04:00 +9°C° 0 mm 3 mps 744 mmHg 82%
05:00 +9°C° 0 mm 3 mps 744 mmHg 83%
06:00 +9°C° 0 mm 3 mps 744 mmHg 84%
07:00 +9°C° 0 mm 3 mps 744 mmHg 85%
Show more